Location: Fort Wayne
(41.1310°N, 85.1290°W)
Time: 18:21:21
(UTC-04:00)

COSMOS 2406 - Visible Passes

Search period start: 27 September 2016 00:00
Search period end: 07 October 2016 00:00
Orbit: 844 x 864 km, 71.0° (Epoch: 26 September)

Date Brightness Start Highest point End Pass type
(mag) Time Alt. Az. Time Alt. Az. Time Alt. Az.
02 Oct6.222:24:48NNE22:24:48NNE22:09:55SSWvisible
03 Oct 4.2 07:07:07 10° NNW 07:12:39 52° ENE 07:18:09 10° SE visible
03 Oct 5.1 20:19:22 10° SE 20:19:31 10° SE 20:19:31 10° SE visible
03 Oct 5.1 22:00:19 10° SSW 22:13:10 - NNE 22:01:49 19° SSW visible
04 Oct 4.1 06:55:52 10° NNW 07:01:26 53° ENE 07:06:57 10° SE visible
04 Oct 4.6 20:08:03 10° SE 20:11:12 15° E 20:12:11 15° E visible
04 Oct 3.3 21:49:06 10° SSW 22:00:58 - NNE 21:54:34 72° W visible
04 Oct 6.1 23:42:53 10° NNW 23:42:53 10° NNW 23:36:59 - WNW visible
05 Oct 4.1 06:44:39 10° NNW 06:50:12 54° ENE 06:55:44 10° SE visible
05 Oct 4.6 19:56:44 10° SE 19:59:58 16° E 20:03:11 10° ENE visible
05 Oct 3.3 21:37:52 10° SSW 21:43:35 72° WNW 21:49:18 10° NNE visible
05 Oct 6.0 23:26:32 10° WNW 23:28:57 13° NW 23:31:23 10° NNW visible
06 Oct 4.0 06:33:25 10° NNW 06:38:59 55° ENE 06:44:31 10° SE visible
06 Oct 4.6 19:45:25 10° SE 19:48:43 16° E 19:52:01 10° ENE visible
06 Oct 3.4 21:26:39 10° SSW 21:32:21 71° WNW 21:38:04 10° NNE visible
06 Oct 6.0 23:15:25 10° WNW 23:17:45 12° NW 23:20:05 10° NNW visible
